Regional Weather Roundup
Issued by NWS

Home | Current Version | Previous Version | Text Only | Print | Product List | Glossary Off
Versions: 1 2 3 4 5 6 7 8 9 10 11 12 13 14 15 16 17 18 19 20 21 22 23 24 25 26 27 28 29 30 31 32 33 34 35 36 37 38 39 40 41 42 43 44 45 46 47 48 49 50

000
ASUS43 KDMX 282108
RWRIA

WEATHER ROUNDUP FOR IOWA
NATIONAL WEATHER SERVICE DES MOINES IA
400 PM CDT SUN AUG 28 2016

NOTE: "FAIR" INDICATES FEW OR NO CLOUDS BELOW 12,000 FEET WITH NO
SIGNIFICANT WEATHER AND/OR OBSTRUCTIONS TO VISIBILITY.

* - THESE STATIONS ARE NOT NWS STATIONS...THUS NOT UNDER NWS
QUALITY CONTROL.  THEY ALSO DO NOT REPORT WEATHER SUCH
AS PRECIPITATION OR FOG.

IAZ001>003-012>014-020>022-031>034-043>046-282200-
   NORTHWEST IOWA

CITY           SKY/WX    TMP DP  RH WIND       PRES   REMARKS
CARROLL *      PTSUNNY   86  73  66 SE10      30.07F HX  93
CHEROKEE *     MOSUNNY   85  74  70 SE9       30.07F HX  93
DENISON *      HAZE      86  73  66 S5        30.05F VSB<1/4 HX  93
LE MARS *      SUNNY     88  72  58 S14       30.05F HX  94
ORANGE CITY *  MOSUNNY   88  72  58 S13       30.06F HX  94
SHELDON *      MOSUNNY   84  75  74 S13G20    30.05F HX  92
SIOUX CITY     MOSUNNY   88  74  63 S12       30.04F HX  96
SPENCER        SUNNY     87  72  60 S13       30.08F HX  93
STORM LAKE *   MOSUNNY   84  73  70 SE10      30.09F HX  91
$$

IAZ055>058-069>071-079>083-090>094-282200-
   SOUTHWEST IOWA

CITY           SKY/WX    TMP DP  RH WIND       PRES   REMARKS
ATLANTIC *     CLOUDY    86  73  66 SE12G17   30.08R HX  93
AUDUBON *      MOSUNNY   88  73  62 CALM      30.09F HX  96
CLARINDA *       N/A     79  68  69 MISG      30.14R HX  81
COUNCIL BLFS * CLOUDY    86  75  70 S10       30.07S HX  95
CRESTON *      CLOUDY    72  64  78 SE17G25   30.14R
HARLAN  *      PTSUNNY   88  73  62 SE7       30.10F HX  96
LAMONI         CLOUDY    81  74  79 S3        30.12R HX  86
RED OAK *      CLOUDY    84  77  79 S3        30.08R HX  94
SHENANDOAH *   MOSUNNY   82 -29   1 SE23G36   30.08R
$$

IAZ047>049-059>061-072>074-084-282200-
   CENTRAL IOWA

CITY           SKY/WX    TMP DP  RH WIND       PRES   REMARKS
AMES           MOSUNNY   87  75  67 SE3       30.09F HX  96
ANKENY *         N/A    N/A N/A N/A MISG        N/A
BOONE *        MOSUNNY   88  72  58 SE5       30.09F HX  94
CHARITON *       N/A     84  72  65 MISG      30.11R HX  89
DES MOINES     CLOUDY    87  72  60 S8        30.08S HX  93
GRINNELL*      MOSUNNY   85  71  63 SE9       30.11F HX  90
KNOXVILLE *    CLOUDY    81  70  69 E9        30.09S HX  84
MARSHALLTOWN   SUNNY     86  70  58 S3        30.10F HX  90
NEWTON *       MOSUNNY   88  73  62 SE5       30.09F HX  96
PERRY *          N/A     88  76  67 S3        30.08F HX  98
$$

IAZ004>006-015-016-023>025-035-036-282200-
   NORTH CENTRAL IOWA

CITY           SKY/WX    TMP DP  RH WIND       PRES   REMARKS
ALGONA *       PTSUNNY   82  72  69 S7G13     30.10F HX  87
ESTHERVILLE    SUNNY     82  71  69 S14       30.09F HX  86
FORT DODGE *   MOSUNNY   86  70  58 S7        30.10F HX  90
MASON CITY     MOSUNNY   81  72  74 SE7       30.13F HX  85
FOREST CITY *    N/A    N/A N/A N/A MISG        N/A
WEBSTER CITY * SUNNY     86  73  66 S8        30.08F HX  93
IOWA FALLS *     N/A     86  71  61 SE10      30.12F HX  91
$$

IAZ007>011-017>019-026>030-037>042-050>054-066-282200-
   NORTHEAST IOWA

CITY           SKY/WX    TMP DP  RH WIND       PRES   REMARKS
CEDAR RAPIDS   LGT RAIN  78  72  81 CALM      30.12S HX  80
CHARLES CITY * MOSUNNY   81  73  78 SE5       30.13F HX  85
CLINTON *      CLOUDY    86  75  69 NE7       30.14S HX  95
DECORAH *      MOSUNNY   81  72  74 VRB3      30.14S HX  84
DUBUQUE        MOSUNNY   82  71  69 E8        30.16F HX  86
MONTICELLO *   MOSUNNY   82  73  74 E6        30.12F HX  88
OELWEIN *      MOSUNNY   84  73  70 S7        30.13F HX  91
WATERLOO       MOSUNNY   83  71  67 SE10      30.09F HX  87
$$

IAZ064-065-067-068-078-282200-
   EAST CENTRAL IOWA

CITY           SKY/WX    TMP DP  RH WIND       PRES   REMARKS
DAVENPORT      CLOUDY    86  71  60 E5        30.13S HX  91
IOWA CITY      CLOUDY    86  73  65 S7        30.12F HX  93
MT. PLEASANT * MOSUNNY   90  74  60 SE5       30.11F HX  99
MUSCATINE *    PTSUNNY   88  72  58 SE6G12    30.11S HX  94
QUAD CITIES    MOSUNNY   88  72  58 SE9       30.11F HX  94
$$

IAZ062-063-075>077-085>089-095>099-282200-
   SOUTHEAST IOWA

CITY           SKY/WX    TMP DP  RH WIND       PRES   REMARKS
BURLINGTON     MOSUNNY   87  74  64 S7        30.11F HX  95
FAIRFIELD *    CLOUDY    88  72  58 SE10      30.10F HX  94
FORT MADISON *   N/A     88  73  62 SE8       30.12F HX  96
KEOKUK *       CLOUDY    81  75  83 S6        30.10F HX  86
OSKALOOSA *      N/A     84  71  64 S7        30.11F HX  89
CENTERVILLE *    N/A     84  73  70 CALM      30.12S HX  91
OTTUMWA        CLOUDY    83  67  58 SE6       30.10F HX  85
WASHINGTON *   MOSUNNY   88  75  66 CALM      30.12S HX  97
$$

ABBREVIATIONS USED IN REMARKS
   TC - TEMPERATURES IN CELSIUS
  WCI - WIND CHILL INDEX
   HX - HEAT INDEX
  VSB - VISIBILITY
$$




USA.gov is the U.S. government's official web portal to all federal, state and local government web resources and services.